Location: *
(34.8620°S, 39.3380°E)
Time: 19:54:23
(UTC+00:00)

Lacrosse 4 Rocket - Pass Details

Date: 02 December 2021
Orbit: 535 x 620 km, 68.0° (Epoch: 24 January)

Event Time Altitude Azimuth Distance (km) Brightness Sun altitude
Rises 19:16:31 0° 219° (SW) 2,729 6.1 -26.8°
Reaches altitude 10° 19:18:59 10° 231° (SW) 1,821 4.8 -27.0°
Enters shadow 19:21:36 24° 268° (W) 1,142 3.2 -27.3°
